Regional Weather Roundup
Issued by NWS

Home | Current Version | Previous Version | Graphics & Text | Print | Product List | Glossary On
Versions: 1 2 3 4 5 6 7 8 9 10 11 12 13 14 15 16 17 18 19 20 21 22 23 24 25 26 27 28 29 30 31 32 33 34 35 36 37 38 39 40 41 42 43 44 45 46 47 48 49 50
000
ASUS43 KFSD 241510
RWRSD

WEATHER ROUNDUP FOR SOUTH DAKOTA
NATIONAL WEATHER SERVICE SIOUX FALLS SD
1000 AM CDT FRI APR 24 2015

NOTE: "FAIR" INDICATES FEW OR NO CLOUDS BELOW 12,000 FEET WITH NO
SIGNIFICANT WEATHER AND/OR OBSTRUCTIONS TO VISIBILITY.


SDZ001>005-009-010-012>017-241600-
NORTHWEST AND NORTH CENTRAL SOUTH DAKOTA

CITY           SKY/WX    TMP DP  RH WIND       PRES   REMARKS
BUFFALO          N/A     53  38  56 NE5       29.57F
FAITH            N/A     53  37  54 N13       29.60S
MOBRIDGE       CLOUDY    52  38  58 N9        29.58S
$$

SDZ012>016-024>037-041>051-057-063-072>074-241600-
SOUTHWEST AND SOUTH CENTRAL SOUTH DAKOTA

CITY           SKY/WX    TMP DP  RH WIND       PRES   REMARKS
RAPID CTY ARPT MOSUNNY   57  43  59 N13       29.62R
PIERRE         PTSUNNY   59  46  62 NW10      29.53F
CUSTER         CLOUDY    53  35  50 NE12      29.66S
ELLSWORTH AFB  PTSUNNY   57  42  57 N10       29.62S
PHILIP         MOSUNNY   60  45  57 NW12      29.57F
PINE RIDGE     MOSUNNY   57  39  51 W9        29.62F
SPEARFISH      FAIR      55  41  58 NE3       29.66S
WINNER         FAIR      62  45  53 SW16      29.57F
$$

SDZ004>011-016>023-039-040-241600-
NORTHEAST SOUTH DAKOTA

CITY           SKY/WX    TMP DP  RH WIND       PRES   REMARKS
ABERDEEN       PTSUNNY   57  43  59 SE14      29.61F
WATERTOWN      PTSUNNY   55  41  59 S18G26    29.65F
BROOKINGS      MOSUNNY   55  41  58 S25G31    29.68F
SISSETON         N/A     45  40  82 SE15      29.70F
$$

SDZ017-020-022-023-036>040-048>070-241600-
SOUTHEAST SOUTH DAKOTA

CITY           SKY/WX    TMP DP  RH WIND       PRES   REMARKS
SIOUX FALLS    CLOUDY    54  42  64 SE16      29.69F
HURON          PTSUNNY   58  42  55 S17G23    29.60F
CHAMBERLAIN    MOSUNNY   63  48  57 S14G21    29.57S
MITCHELL       PTSUNNY   56  42  59 S17G26    29.63F
YANKTON        CLOUDY    57  45  62 S16G22    29.67F
$$

ABBREVIATIONS USED IN REMARKS
   TC - TEMPERATURE IN CELSIUS
  WCI - WIND CHILL INDEX
   HX - HEAT INDEX
  VSB - VISIBILITY



USA.gov is the U.S. government's official web portal to all federal, state and local government web resources and services.